| time (UTC) | temp F | wind direction | speed knots | gust knots | rain 1hr in | rain 24hr in | rain mn in | humidity % | barometer mb |
| 20260504140105 | 59 | 112 | 2.6 | 7.0 | 0.01 | 0.01 | 0.01 | 41 | 1022.1 |
| 20260504081554 | 47 | 126 | 0.0 | 1.7 | 0.00 | 0.01 | 0.00 | 53 | 1022.6 |
| 20260504044531 | 48 | 238 | 0.9 | 5.2 | 0.00 | 0.01 | 0.00 | 50 | 1022.2 |
| 20260504043027 | 48 | 327 | 0.0 | 1.7 | 0.00 | 0.01 | 0.00 | 51 | 1022.0 |
| 20260504041523 | 48 | 193 | 0.0 | 2.6 | 0.00 | 0.01 | 0.00 | 51 | 1022.0 |
| 20260504040021 | 48 | 225 | 0.9 | 3.5 | 0.00 | 0.01 | 0.00 | 51 | 1021.7 |
| 20260504034535 | 48 | 252 | 0.0 | 4.3 | 0.00 | 0.01 | 0.01 | 50 | 1021.7 |
| 20260504033026 | 47 | 194 | 0.9 | 3.5 | 0.00 | 0.01 | 0.01 | 50 | 1021.7 |
| 20260504031519 | 48 | 138 | 0.0 | 1.7 | 0.00 | 0.01 | 0.01 | 49 | 1021.7 |
| 20260504030118 | 49 | 221 | 0.0 | 1.7 | 0.00 | 0.01 | 0.01 | 48 | 1021.6 |
| 20260504024518 | 49 | 246 | 0.0 | 2.6 | 0.00 | 0.01 | 0.01 | 47 | 1021.7 |
| 20260504023017 | 49 | 143 | 0.0 | 1.7 | 0.00 | 0.01 | 0.01 | 46 | 1021.7 |
| 20260504021516 | 50 | 246 | 0.0 | 2.6 | 0.00 | 0.01 | 0.01 | 45 | 1021.7 |
| 20260504020016 | 51 | 250 | 0.9 | 2.6 | 0.00 | 0.01 | 0.01 | 44 | 1021.7 |
| 20260504014518 | 51 | 265 | 0.0 | 2.6 | 0.00 | 0.01 | 0.01 | 42 | 1021.6 |
| 20260504013015 | 51 | 242 | 0.0 | 2.6 | 0.00 | 0.01 | 0.01 | 41 | 1021.5 |
| 20260504011514 | 51 | 267 | 0.0 | 2.6 | 0.00 | 0.01 | 0.01 | 41 | 1021.4 |
| 20260504010014 | 52 | 250 | 0.0 | 1.7 | 0.00 | 0.01 | 0.01 | 40 | 1021.2 |
| 20260504004513 | 52 | 255 | 0.0 | 1.7 | 0.00 | 0.01 | 0.01 | 41 | 1021.1 |
| 20260504003013 | 53 | 265 | 0.0 | 1.7 | 0.00 | 0.01 | 0.01 | 38 | 1020.9 |
| 20260504001512 | 53 | 285 | 0.9 | 3.5 | 0.00 | 0.01 | 0.01 | 37 | 1020.7 |
| 20260504000011 | 54 | 281 | 0.0 | 1.7 | 0.00 | 0.01 | 0.01 | 37 | 1020.5 |
| 20260503234512 | 55 | 12 | 1.7 | 5.2 | 0.00 | 0.01 | 0.01 | 36 | 1020.3 |
| 20260503233011 | 55 | 261 | 0.0 | 3.5 | 0.00 | 0.01 | 0.01 | 35 | 1020.2 |
| 20260503231515 | 56 | 75 | 1.7 | 7.0 | 0.00 | 0.01 | 0.01 | 34 | 1020.0 |
| 20260503230009 | 56 | 300 | 1.7 | 7.0 | 0.00 | 0.01 | 0.01 | 34 | 1019.9 |
| 20260503224509 | 57 | 78 | 0.9 | 5.2 | 0.00 | 0.01 | 0.01 | 32 | 1019.8 |
| 20260503223020 | 56 | 270 | 0.9 | 4.3 | 0.00 | 0.01 | 0.01 | 33 | 1019.7 |
| 20260503221506 | 57 | 267 | 1.7 | 7.8 | 0.00 | 0.01 | 0.01 | 32 | 1019.7 |
| 20260503220011 | 58 | 340 | 2.6 | 7.0 | 0.00 | 0.01 | 0.01 | 33 | 1019.6 |
| 20260503214505 | 58 | 171 | 1.7 | 7.0 | 0.00 | 0.01 | 0.01 | 31 | 1019.6 |
| 20260503213004 | 57 | 302 | 0.9 | 11.3 | 0.00 | 0.01 | 0.01 | 31 | 1019.6 |
| 20260503211502 | 58 | 282 | 1.7 | 7.0 | 0.00 | 0.01 | 0.01 | 32 | 1019.6 |
| 20260503210002 | 57 | 107 | 2.6 | 10.4 | 0.00 | 0.01 | 0.01 | 32 | 1019.5 |
| 20260503204501 | 57 | 26 | 2.6 | 9.6 | 0.00 | 0.01 | 0.01 | 34 | 1019.6 |
| 20260503203114 | 57 | 231 | 1.7 | 8.7 | 0.00 | 0.01 | 0.01 | 31 | 1019.6 |
| 20260503201557 | 56 | 286 | 2.6 | 7.8 | 0.00 | 0.01 | 0.01 | 31 | 1019.7 |
| 20260503200054 | 55 | 283 | 3.5 | 12.2 | 0.00 | 0.01 | 0.01 | 32 | 1019.8 |
| 20260503194553 | 56 | 9 | 5.2 | 14.8 | 0.00 | 0.01 | 0.01 | 34 | 1019.7 |
| 20260503193052 | 54 | 153 | 1.7 | 7.8 | 0.00 | 0.01 | 0.01 | 36 | 1020.1 |
| 20260503191602 | 54 | 58 | 3.5 | 12.2 | 0.00 | 0.01 | 0.01 | 39 | 1020.1 |
| 20260503190048 | 54 | 49 | 2.6 | 11.3 | 0.00 | 0.01 | 0.01 | 34 | 1020.2 |
| 20260503184605 | 53 | 342 | 2.6 | 12.2 | 0.00 | 0.01 | 0.01 | 36 | 1020.3 |
| 20260503183048 | 53 | 17 | 2.6 | 12.2 | 0.00 | 0.01 | 0.01 | 41 | 1020.6 |
| 20260503181545 | 54 | 252 | 4.3 | 9.6 | 0.00 | 0.01 | 0.01 | 36 | 1020.4 |
| 20260503180041 | 52 | 344 | 1.7 | 11.3 | 0.00 | 0.01 | 0.01 | 39 | 1020.6 |
| 20260503174551 | 52 | 88 | 1.7 | 9.6 | 0.00 | 0.01 | 0.01 | 42 | 1020.7 |
| 20260503173037 | 49 | 296 | 1.7 | 10.4 | 0.00 | 0.01 | 0.01 | 42 | 1020.9 |
| 20260503171537 | 50 | 324 | 3.5 | 9.6 | 0.00 | 0.01 | 0.01 | 43 | 1020.8 |